timestamp,wind_dir_avg,wind_spd_avg,wind_spd_max_dir,wind_spd_gust,battery_voltage,lat,long
2021-01-01 00:04:01+00:00,195.0,21.16,199.0,23.55,12.41,47.59359,-54.27349
2021-01-01 00:14:01+00:00,204.0,17.74,202.0,21.28,12.41,47.59359,-54.27349
2021-01-01 00:24:01+00:00,222.0,15.93,222.0,20.7,12.41,47.59359,-54.27349
2021-01-01 00:34:01+00:00,215.0,17.01,221.0,19.52,12.41,47.59359,-54.27349
2021-01-01 00:44:01+00:00,212.0,16.35,214.0,19.31,12.41,47.59359,-54.27349
2021-01-01 00:54:01+00:00,214.0,13.84,209.0,17.02,12.41,47.59359,-54.27349
2021-01-01 01:04:01+00:00,214.0,13.03,211.0,15.68,12.41,47.59359,-54.27349
2021-01-01 01:14:01+00:00,215.0,12.52,215.0,14.81,12.33,47.59359,-54.27349
2021-01-01 01:24:01+00:00,218.0,10.18,219.0,11.4,12.33,47.59359,-54.27349
2021-01-01 01:34:01+00:00,230.0,8.82,232.0,10.19,12.33,47.59359,-54.27349
2021-01-01 01:44:01+00:00,241.0,8.26,243.0,9.63,12.33,47.59359,-54.27349
2021-01-01 01:54:01+00:00,240.0,7.77,241.0,8.43,12.33,47.59359,-54.27349
2021-01-01 02:04:01+00:00,247.0,8.98,249.0,9.96,12.33,47.59359,-54.27349
2021-01-01 02:14:01+00:00,251.0,8.79,253.0,9.97,12.33,47.59359,-54.27349
2021-01-01 02:24:01+00:00,247.0,9.81,244.0,10.74,12.33,47.59359,-54.27349
2021-01-01 02:34:01+00:00,252.0,9.25,249.0,10.56,12.33,47.59359,-54.27349
2021-01-01 02:44:01+00:00,268.0,8.82,265.0,9.5,12.33,47.59359,-54.27349
2021-01-01 02:54:01+00:00,269.0,8.02,274.0,9.64,12.33,47.59359,-54.27349
2021-01-01 03:04:01+00:00,279.0,8.75,284.0,9.48,12.33,47.59359,-54.27349
2021-01-01 03:14:01+00:00,274.0,10.45,278.0,12.12,12.33,47.59359,-54.27349
2021-01-01 03:24:01+00:00,270.0,9.75,281.0,11.65,12.33,47.59359,-54.27349
2021-01-01 03:34:01+00:00,270.0,9.34,272.0,11.12,12.33,47.59359,-54.27349
2021-01-01 03:44:01+00:00,263.0,8.3,270.0,10.22,12.33,47.59359,-54.27349
2021-01-01 03:54:01+00:00,264.0,8.64,268.0,9.91,12.33,47.59359,-54.27349
2021-01-01 04:04:01+00:00,273.0,9.82,274.0,11.32,12.33,47.59359,-54.27349
2021-01-01 04:14:01+00:00,269.0,8.99,268.0,11.82,12.33,47.59359,-54.27349
2021-01-01 04:24:01+00:00,277.0,8.8,278.0,10.49,12.33,47.59359,-54.27349
2021-01-01 04:34:01+00:00,273.0,8.88,276.0,9.94,12.33,47.59359,-54.27349
2021-01-01 04:44:01+00:00,278.0,7.78,278.0,9.12,12.33,47.59359,-54.27349
2021-01-01 04:54:01+00:00,285.0,7.26,281.0,8.45,12.33,47.59359,-54.27349
2021-01-01 05:04:01+00:00,283.0,6.84,285.0,7.82,12.33,47.59359,-54.27349
2021-01-01 05:14:01+00:00,287.0,7.4,292.0,8.74,12.25,47.59359,-54.27349
2021-01-01 05:24:01+00:00,267.0,6.4,265.0,7.21,12.25,47.59359,-54.27349
2021-01-01 05:34:01+00:00,276.0,7.29,282.0,8.28,12.25,47.59359,-54.27349
2021-01-01 05:44:01+00:00,274.0,7.68,266.0,9.56,12.25,47.59359,-54.27349
2021-01-01 05:54:01+00:00,280.0,7.0,281.0,7.94,12.25,47.59359,-54.27349
2021-01-01 06:04:01+00:00,273.0,6.05,273.0,6.74,12.25,47.59359,-54.27349
2021-01-01 06:14:01+00:00,266.0,5.36,273.0,6.14,12.25,47.59359,-54.27349
2021-01-01 06:24:01+00:00,259.0,3.7,258.0,4.96,12.25,47.59359,-54.27349
2021-01-01 06:34:01+00:00,257.0,6.78,261.0,7.93,12.25,47.59359,-54.27349
2021-01-01 06:44:01+00:00,248.0,6.85,253.0,7.75,12.25,47.59359,-54.27349
2021-01-01 06:54:01+00:00,259.0,6.3,257.0,7.16,12.25,47.59359,-54.27349
2021-01-01 07:04:01+00:00,253.0,6.69,262.0,7.47,12.25,47.59359,-54.27349
2021-01-01 07:14:01+00:00,247.0,7.92,247.0,8.86,12.25,47.59359,-54.27349
2021-01-01 07:24:01+00:00,239.0,6.26,235.0,7.5,12.25,47.59359,-54.27349
2021-01-01 07:34:01+00:00,237.0,6.8,236.0,7.93,12.25,47.59359,-54.27349
2021-01-01 07:44:01+00:00,240.0,7.24,240.0,8.43,12.25,47.59359,-54.27349
2021-01-01 07:54:01+00:00,239.0,6.68,232.0,7.55,12.25,47.59359,-54.27349
2021-01-01 08:04:01+00:00,230.0,6.52,224.0,7.69,12.25,47.59359,-54.27349
2021-01-01 08:14:01+00:00,232.0,8.01,232.0,9.21,12.25,47.59359,-54.27349
2021-01-01 08:24:01+00:00,238.0,7.81,242.0,9.41,12.25,47.59359,-54.27349
2021-01-01 08:34:01+00:00,250.0,8.62,247.0,9.81,12.25,47.59359,-54.27349
2021-01-01 08:44:01+00:00,249.0,9.33,249.0,10.82,12.25,47.59359,-54.27349
2021-01-01 08:54:01+00:00,249.0,8.06,240.0,9.09,12.25,47.59359,-54.27349
2021-01-01 09:04:01+00:00,248.0,7.54,245.0,8.83,12.25,47.59359,-54.27349
2021-01-01 09:14:01+00:00,249.0,6.54,243.0,8.26,12.25,47.59359,-54.27349
2021-01-01 09:24:01+00:00,252.0,7.02,246.0,7.88,12.25,47.59359,-54.27349
2021-01-01 09:34:01+00:00,257.0,7.61,260.0,9.13,12.25,47.59359,-54.27349
2021-01-01 09:44:01+00:00,255.0,6.31,252.0,7.38,12.25,47.59359,-54.27349
2021-01-01 09:54:01+00:00,259.0,6.55,261.0,7.06,12.25,47.59359,-54.27349
2021-01-01 10:04:01+00:00,267.0,6.46,264.0,7.22,12.25,47.59359,-54.27349
2021-01-01 10:14:01+00:00,278.0,5.04,300.0,6.03,12.25,47.59359,-54.27349
2021-01-01 10:24:01+00:00,288.0,7.35,286.0,8.23,12.25,47.59359,-54.27349
2021-01-01 10:34:01+00:00,302.0,8.06,301.0,9.31,12.25,47.59359,-54.27349
2021-01-01 10:44:01+00:00,307.0,7.62,305.0,9.89,12.25,47.59359,-54.27349
2021-01-01 10:54:01+00:00,310.0,6.51,317.0,7.73,12.25,47.59359,-54.27349
2021-01-01 11:04:01+00:00,313.0,7.13,308.0,8.91,12.25,47.59359,-54.27349
2021-01-01 11:14:01+00:00,307.0,9.28,307.0,10.66,12.25,47.59359,-54.27349
2021-01-01 11:24:01+00:00,304.0,10.55,305.0,13.04,12.25,47.59359,-54.27349
2021-01-01 11:34:01+00:00,301.0,11.84,300.0,13.68,12.25,47.59359,-54.27349
2021-01-01 11:44:01+00:00,301.0,10.77,300.0,12.35,12.25,47.59359,-54.27349
2021-01-01 11:54:01+00:00,298.0,9.54,303.0,12.04,12.25,47.59359,-54.27349
2021-01-01 12:04:01+00:00,298.0,9.81,298.0,11.63,12.25,47.59359,-54.27349
2021-01-01 12:14:01+00:00,287.0,10.15,293.0,12.16,12.33,47.59359,-54.27349
2021-01-01 12:24:01+00:00,292.0,10.06,292.0,11.83,12.33,47.59359,-54.27349
2021-01-01 12:34:01+00:00,288.0,8.63,287.0,10.39,12.33,47.59359,-54.27349
2021-01-01 12:44:01+00:00,289.0,8.39,288.0,10.48,12.33,47.59359,-54.27349
2021-01-01 12:54:01+00:00,293.0,11.28,290.0,12.43,12.33,47.59359,-54.27349
2021-01-01 13:04:01+00:00,286.0,8.86,285.0,12.18,12.33,47.59359,-54.27349
2021-01-01 13:14:01+00:00,282.0,9.92,280.0,12.06,14.4,47.59359,-54.27349
2021-01-01 13:24:01+00:00,291.0,10.85,294.0,12.63,14.4,47.59359,-54.27349
2021-01-01 13:34:01+00:00,280.0,9.57,268.0,11.38,14.4,47.59359,-54.27349
2021-01-01 13:44:01+00:00,288.0,9.67,281.0,11.96,14.4,47.59359,-54.27349
2021-01-01 13:54:01+00:00,283.0,10.22,283.0,12.78,14.4,47.59359,-54.27349
2021-01-01 14:04:01+00:00,275.0,12.14,279.0,13.62,14.4,47.59359,-54.27349
2021-01-01 14:14:01+00:00,280.0,8.31,281.0,10.63,13.68,47.59359,-54.27349
2021-01-01 14:24:01+00:00,286.0,10.01,290.0,11.93,13.68,47.59359,-54.27349
2021-01-01 14:34:01+00:00,283.0,11.46,280.0,13.73,13.68,47.59359,-54.27349
2021-01-01 14:44:01+00:00,305.0,11.66,307.0,13.64,13.68,47.59359,-54.27349
2021-01-01 14:54:01+00:00,292.0,10.78,290.0,12.59,13.68,47.59359,-54.27349
2021-01-01 15:04:01+00:00,295.0,11.45,292.0,13.56,13.68,47.59359,-54.27349
2021-01-01 15:14:01+00:00,304.0,11.38,307.0,12.94,13.92,47.59359,-54.27349
2021-01-01 15:24:01+00:00,301.0,13.06,300.0,15.28,13.92,47.59359,-54.27349
2021-01-01 15:34:01+00:00,305.0,12.79,307.0,14.7,13.92,47.59359,-54.27349
2021-01-01 15:44:01+00:00,299.0,11.73,307.0,13.41,13.92,47.59359,-54.27349
2021-01-01 15:54:01+00:00,281.0,11.08,274.0,13.12,13.92,47.59359,-54.27349
2021-01-01 16:04:01+00:00,306.0,10.98,307.0,13.18,13.92,47.59359,-54.27349
2021-01-01 16:14:01+00:00,311.0,11.64,308.0,13.54,13.44,47.59359,-54.27349
2021-01-01 16:24:01+00:00,301.0,10.42,306.0,13.37,13.44,47.59359,-54.27349
2021-01-01 16:34:01+00:00,298.0,9.3,304.0,10.47,13.44,47.59359,-54.27349
2021-01-01 16:44:01+00:00,307.0,12.41,310.0,15.44,13.44,47.59359,-54.27349
2021-01-01 16:54:01+00:00,302.0,10.31,302.0,11.51,13.44,47.59359,-54.27349
2021-01-01 17:04:01+00:00,307.0,11.6,311.0,14.0,13.44,47.59359,-54.27349
2021-01-01 17:14:01+00:00,305.0,11.68,307.0,14.16,13.53,47.59359,-54.27349
2021-01-01 17:24:01+00:00,305.0,11.54,318.0,14.64,13.53,47.59359,-54.27349
2021-01-01 17:34:01+00:00,312.0,10.77,311.0,13.27,13.53,47.59359,-54.27349
2021-01-01 17:44:01+00:00,304.0,11.09,305.0,13.29,13.53,47.59359,-54.27349
2021-01-01 17:54:01+00:00,307.0,12.69,313.0,15.77,13.53,47.59359,-54.27349
2021-01-01 18:04:01+00:00,308.0,10.59,306.0,13.62,13.53,47.59359,-54.27349
2021-01-01 18:14:01+00:00,296.0,10.82,302.0,13.98,14.32,47.59359,-54.27349
2021-01-01 18:24:01+00:00,322.0,11.65,315.0,15.56,14.32,47.59359,-54.27349
2021-01-01 18:34:01+00:00,295.0,12.53,302.0,14.36,14.32,47.59359,-54.27349
2021-01-01 18:44:01+00:00,307.0,10.54,298.0,13.85,14.32,47.59359,-54.27349
2021-01-01 18:54:01+00:00,306.0,12.42,306.0,15.44,14.32,47.59359,-54.27349
2021-01-01 19:04:01+00:00,307.0,11.24,303.0,14.17,14.32,47.59359,-54.27349
2021-01-01 19:14:01+00:00,309.0,8.94,315.0,10.34,13.68,47.59359,-54.27349
2021-01-01 19:24:01+00:00,315.0,8.2,317.0,10.02,13.68,47.59359,-54.27349
2021-01-01 19:34:01+00:00,301.0,9.86,304.0,12.95,13.68,47.59359,-54.27349
2021-01-01 19:44:01+00:00,315.0,7.48,318.0,8.44,13.68,47.59359,-54.27349
2021-01-01 19:54:01+00:00,315.0,7.92,312.0,8.86,13.68,47.59359,-54.27349
2021-01-01 20:04:01+00:00,304.0,9.77,298.0,12.77,13.68,47.59359,-54.27349
2021-01-01 20:14:01+00:00,308.0,10.04,308.0,12.05,12.81,47.59359,-54.27349
2021-01-01 20:24:01+00:00,304.0,11.99,300.0,16.0,12.81,47.59359,-54.27349
2021-01-01 20:34:01+00:00,303.0,11.53,301.0,15.25,12.81,47.59359,-54.27349
2021-01-01 20:44:01+00:00,307.0,9.92,301.0,13.0,12.81,47.59359,-54.27349
2021-01-01 20:54:01+00:00,302.0,10.09,295.0,14.43,12.81,47.59359,-54.27349
2021-01-01 21:04:01+00:00,308.0,6.91,306.0,8.59,12.81,47.59359,-54.27349
2021-01-01 21:14:01+00:00,303.0,8.27,308.0,10.38,12.65,47.59359,-54.27349
2021-01-01 21:24:01+00:00,285.0,7.33,288.0,9.0,12.65,47.59359,-54.27349
2021-01-01 21:34:01+00:00,304.0,5.32,300.0,6.54,12.65,47.59359,-54.27349
2021-01-01 21:44:01+00:00,302.0,6.79,301.0,9.28,12.65,47.59359,-54.27349
2021-01-01 21:54:01+00:00,316.0,7.94,315.0,10.36,12.65,47.59359,-54.27349
2021-01-01 22:04:01+00:00,312.0,7.43,308.0,8.68,12.65,47.59359,-54.27349
2021-01-01 22:14:01+00:00,307.0,8.37,311.0,10.28,12.57,47.59359,-54.27349
2021-01-01 22:24:01+00:00,297.0,8.89,302.0,11.97,12.57,47.59359,-54.27349
2021-01-01 22:34:01+00:00,304.0,8.36,302.0,9.84,12.57,47.59359,-54.27349
2021-01-01 22:44:01+00:00,292.0,10.98,289.0,15.25,12.57,47.59359,-54.27349
2021-01-01 22:54:01+00:00,313.0,9.98,325.0,12.25,12.57,47.59359,-54.27349
2021-01-01 23:04:01+00:00,313.0,7.34,317.0,8.33,12.57,47.59359,-54.27349
2021-01-01 23:14:01+00:00,298.0,7.53,297.0,9.53,12.57,47.59359,-54.27349
2021-01-01 23:24:01+00:00,316.0,8.97,316.0,11.47,12.57,47.59359,-54.27349
2021-01-01 23:34:01+00:00,311.0,10.04,308.0,12.05,12.57,47.59359,-54.27349
2021-01-01 23:44:01+00:00,313.0,8.35,321.0,9.73,12.57,47.59359,-54.27349
2021-01-01 23:54:01+00:00,295.0,8.51,297.0,9.72,12.57,47.59359,-54.27349
